Location: Arrakis Observatory
(44.1122°N, 95.7153°W)
Time: 16:23:40
(UTC-05:00)

Iridium 35 - Visible Passes

Search period start: 27 May 2018 00:00
Search period end: 06 June 2018 00:00
Orbit: 761 x 765 km, 86.4° (Epoch: 27 May)

Date Brightness Start Highest point End Pass type
(mag) Time Alt. Az. Time Alt. Az. Time Alt. Az.
27 May 8.1 22:32:56 10° W 22:34:26 11° WNW 22:35:56 10° NW visible
28 May 7.6 21:52:13 10° SW 21:56:09 22° WNW 22:00:06 10° NNW visible
30 May 8.4 22:20:45 10° WNW 22:21:23 10° WNW 22:22:01 10° WNW visible
31 May 7.7 21:39:19 10° WSW 21:43:05 20° WNW 21:46:53 10° NNW visible
